Location: Newark
(11.2914°S, 14.4718°E)
Time: 10:19:05
(UTC+00:00)

Vanguard 1 - All Passes

Search period start: 19 September 2019 00:00
Search period end: 29 September 2019 00:00
Orbit: 654 x 3829 km, 34.3° (Epoch: 16 September)

Date Brightness Start Highest point End Pass type
(mag) Time Alt. Az. Time Alt. Az. Time Alt. Az.
19 Sep - 02:08:03 10° NW 02:15:46 12° NNW 02:23:09 10° N visible
19 Sep - 09:39:53 10° NNW 09:44:09 19° NNE 09:47:36 10° ENE daylight
19 Sep - 12:00:03 10° WNW 12:04:27 43° SSW 12:08:54 10° SE daylight
19 Sep - 14:25:19 10° SSW 14:26:26 11° S 14:27:38 10° S daylight
19 Sep - 16:45:40 10° SSW 16:50:52 17° SSE 16:58:03 10° ESE daylight
19 Sep - 19:04:19 10° SW 19:15:05 49° SSE 19:33:51 10° ENE visible
19 Sep - 21:24:55 10° WSW 21:40:13 74° NW 22:03:39 10° NE visible
19 Sep - 23:51:10 10° W 00:07:59 31° NW 00:26:57 10° NNE visible
20 Sep - 09:59:59 10° NNW 10:05:25 34° NNE 10:09:33 10° E daylight
20 Sep - 12:21:51 10° W 12:25:36 25° SSW 12:29:30 10° SSE daylight
20 Sep - 17:06:25 10° SSW 17:12:43 21° SSE 17:22:02 10° ESE visible
20 Sep - 19:25:08 10° SW 19:36:30 62° SE 19:56:42 10° ENE visible
20 Sep - 21:46:25 10° WSW 22:01:57 60° NW 22:24:52 10° NE visible
21 Sep - 00:15:10 10° W 00:30:26 24° NNW 00:46:55 10° NNE visible
21 Sep - 08:03:54 10° NNE 08:04:39 10° NNE 08:05:23 10° NNE daylight
21 Sep - 10:20:42 10° NW 10:26:32 62° NE 10:30:57 10° ESE daylight
21 Sep - 12:44:13 10° WSW 12:46:55 15° SSW 12:49:47 10° SSE daylight
21 Sep - 17:27:04 10° SSW 17:34:21 27° SSE 17:45:57 10° E visible
21 Sep - 19:46:01 10° SW 19:57:53 77° SE 20:19:05 10° ENE visible
21 Sep - 22:08:16 10° WSW 22:23:51 48° NW 22:45:46 10° NNE visible
22 Sep - 00:40:37 10° WNW 00:53:16 17° NNW 01:06:22 10° N visible
22 Sep - 08:21:26 10° NNW 08:26:23 17° NNE 08:30:10 10° ENE daylight
22 Sep - 10:41:52 10° WNW 10:47:32 72° SW 10:51:57 10° SE daylight
22 Sep - 15:31:53 10° SSE 15:32:18 10° SSE 15:32:42 10° SSE daylight
22 Sep - 17:47:42 10° SSW 17:55:48 35° SSE 18:09:34 10° E visible
22 Sep - 20:07:02 10° WSW 20:19:20 86° NW 20:41:02 10° NE visible
22 Sep - 22:30:35 10° W 22:45:56 38° NW 23:06:24 10° NNE visible
23 Sep - 01:08:35 10° NW 01:16:36 12° NNW 01:24:38 10° N visible
23 Sep - 08:41:18 10° NNW 08:47:56 27° NNE 08:52:30 10° E daylight
23 Sep - 11:03:27 10° WNW 11:08:30 39° SW 11:12:41 10° SE daylight
23 Sep - 15:51:10 10° S 15:54:09 13° SSE 15:57:46 10° SE daylight
23 Sep - 18:08:20 10° SW 18:17:06 46° SE 18:32:47 10° ENE visible
23 Sep - 20:28:14 10° WSW 20:40:52 70° NW 21:02:37 10° NE visible
23 Sep - 22:53:33 10° W 23:08:15 29° NNW 23:26:45 10° NNE visible
24 Sep - 06:43:59 10° N 06:46:02 11° NNE 06:47:52 10° NNE daylight
24 Sep - 09:01:50 10° NW 09:09:17 44° NNE 09:14:07 10° ESE daylight
24 Sep - 11:25:31 10° W 11:29:32 23° SSW 11:33:07 10° SSE daylight
24 Sep - 16:11:21 10° SSW 16:15:50 17° SSE 16:21:54 10° ESE daylight
24 Sep - 18:29:03 10° SW 18:38:19 60° SE 18:55:34 10° ENE visible
24 Sep - 20:49:42 10° WSW 21:02:35 56° NW 21:23:50 10° NE visible
24 Sep - 23:17:28 10° WNW 23:30:53 22° NNW 23:46:46 10° NNE visible
25 Sep - 07:01:49 10° NNW 07:08:05 17° NNE 07:12:43 10° ENE daylight
25 Sep - 09:22:49 10° NW 09:30:28 74° NE 09:35:19 10° ESE daylight
25 Sep - 11:48:15 10° WSW 11:50:44 14° SSW 11:53:06 10° S daylight
25 Sep - 16:31:41 10° SSW 16:37:19 23° SSE 16:45:44 10° ESE daylight
25 Sep - 18:49:53 10° SW 18:59:32 78° SE 19:17:53 10° ENE visible
25 Sep - 21:11:30 10° W 21:24:30 44° NNW 21:44:45 10° NNE visible
25 Sep - 23:42:48 10° WNW 23:53:56 16° NNW 00:06:17 10° N visible
26 Sep - 07:21:34 10° NNW 07:29:54 25° NNE 07:35:23 10° E daylight
26 Sep - 09:44:15 10° WNW 09:51:28 67° SW 09:56:12 10° SE daylight
26 Sep - 16:52:07 10° SSW 16:58:35 31° SE 17:09:11 10° E daylight
26 Sep - 19:10:51 10° WSW 19:20:51 83° NW 19:39:47 10° NE visible
26 Sep - 21:33:47 10° W 21:46:38 34° NNW 22:05:23 10° NNE visible
27 Sep - 00:10:45 10° NW 00:17:30 12° NNW 00:24:32 10° N visible
27 Sep - 05:22:57 10° N 05:26:37 11° NNE 05:29:49 10° NE daylight
27 Sep - 07:41:58 10° NNW 07:51:32 37° NNE 07:57:17 10° E daylight
27 Sep - 10:06:05 10° WNW 10:12:24 39° SW 10:16:52 10° SE daylight
27 Sep - 17:12:39 10° SW 17:19:43 43° SE 17:32:15 10° ENE visible
27 Sep - 19:32:02 10° WSW 19:42:20 65° NW 20:01:18 10° NE visible
27 Sep - 21:56:45 10° WNW 22:09:02 26° NNW 22:25:42 10° NNE visible
28 Sep - 05:41:04 10° NNW 05:49:02 17° NNE 05:54:55 10° ENE daylight
28 Sep - 08:02:49 10° NW 08:12:56 55° NNE 08:18:42 10° ESE daylight
28 Sep - 10:28:23 10° W 10:33:23 24° SW 10:37:14 10° SSE daylight
28 Sep - 15:16:38 10° S 15:19:15 13° SSE 15:22:20 10° SE daylight
28 Sep - 17:33:16 10° SW 17:40:47 59° SE 17:54:51 10° ENE visible
28 Sep - 19:53:28 10° WSW 20:04:00 50° NNW 20:22:28 10° NE visible
28 Sep - 22:20:42 10° WNW 22:31:46 19° NNW 22:45:39 10° NNE visible
